TimeCST,TemperatureF,Dew PointF,Humidity,Sea Level PressureIn,VisibilityMPH,Wind Direction,Wind SpeedMPH,Gust SpeedMPH,PrecipitationIn,Events,Conditions,WindDirDegrees,DateUTC
12:52 AM,46.0,28.9,51,30.14,10.0,WSW,9.2,-,N/A,,Clear,240,2013-01-20 06:52:00
1:52 AM,45.0,30.0,56,30.15,10.0,WSW,6.9,-,N/A,,Clear,240,2013-01-20 07:52:00
2:52 AM,42.1,30.9,65,30.17,10.0,West,6.9,-,N/A,,Clear,260,2013-01-20 08:52:00
3:52 AM,41.0,30.9,67,30.17,10.0,WSW,4.6,-,N/A,,Clear,250,2013-01-20 09:52:00
4:52 AM,39.9,30.9,70,30.18,10.0,West,3.5,-,N/A,,Clear,270,2013-01-20 10:52:00
5:52 AM,36.0,30.0,79,30.21,10.0,Calm,Calm,-,N/A,,Clear,0,2013-01-20 11:52:00
6:52 AM,35.1,30.0,82,30.22,10.0,West,3.5,-,N/A,,Clear,280,2013-01-20 12:52:00
7:52 AM,36.0,30.9,82,30.25,10.0,NNW,4.6,-,N/A,,Clear,330,2013-01-20 13:52:00
8:52 AM,43.0,30.9,62,30.27,10.0,North,11.5,-,N/A,,Clear,360,2013-01-20 14:52:00
9:52 AM,45.0,27.0,49,30.28,10.0,NNW,10.4,-,N/A,,Clear,340,2013-01-20 15:52:00
10:52 AM,46.0,28.0,50,30.28,10.0,NNW,6.9,-,N/A,,Clear,340,2013-01-20 16:52:00
11:52 AM,46.0,23.0,40,30.25,10.0,NNW,6.9,-,N/A,,Clear,340,2013-01-20 17:52:00
12:52 PM,46.9,26.1,44,30.22,10.0,NNW,6.9,-,N/A,,Clear,340,2013-01-20 18:52:00
1:52 PM,48.0,21.0,34,30.21,10.0,North,6.9,-,N/A,,Clear,10,2013-01-20 19:52:00
2:52 PM,48.0,18.0,30,30.21,10.0,NE,4.6,-,N/A,,Clear,40,2013-01-20 20:52:00
3:52 PM,46.9,19.0,33,30.20,10.0,Calm,Calm,-,N/A,,Clear,0,2013-01-20 21:52:00
4:52 PM,42.1,19.9,41,30.22,10.0,North,9.2,-,N/A,,Clear,350,2013-01-20 22:52:00
5:52 PM,37.9,21.9,53,30.23,10.0,North,9.2,-,N/A,,Clear,350,2013-01-20 23:52:00
6:52 PM,36.0,19.9,52,30.22,10.0,North,9.2,-,N/A,,Clear,10,2013-01-21 00:52:00
7:52 PM,33.1,19.9,59,30.23,10.0,North,6.9,-,N/A,,Clear,360,2013-01-21 01:52:00
8:52 PM,30.9,19.9,64,30.22,10.0,North,5.8,-,N/A,,Clear,10,2013-01-21 02:52:00
9:52 PM,30.0,19.0,64,30.20,10.0,NNE,3.5,-,N/A,,Clear,20,2013-01-21 03:52:00
10:52 PM,30.0,18.0,61,30.22,10.0,NNW,3.5,-,N/A,,Clear,330,2013-01-21 04:52:00
11:52 PM,28.0,19.0,69,30.22,10.0,Calm,Calm,-,N/A,,Clear,0,2013-01-21 05:52:00